Station: Macquarie Island  

  Atmospheric Gas Attenuation - ITU Rec 676-11   ----------------- dB/100km -----------------
Date Time Temp RH % AH g/m3 Dew Point Wind Direction Speed kph Gust kph Barometer mB Rainfall Since 9am 24GHz 47GHz 76GHz 122GHz 134GHz 241GHz
04/09 07:30 3.5 87 5.35 1.5 30 35 975.2 1.8 13.0 22.0 29.8 78.1 63.9 216.6
04/09 07:20 3.9 84 5.31 1.4 33 43 975.3 1.8 12.9 21.9 29.5 77.3 63.0 213.7
04/09 07:10 4.3 85 5.52 2 32 37 974.9 1.8 13.4 22.1 30.1 79.1 65.4 222.0
04/09 07:00 4.2 86 5.55 2.1 30 33 974.9 1.8 13.4 22.2 30.3 79.5 65.8 223.7
04/09 06:50 4 86 5.47 1.9 30 33 974.9 1.8 13.3 22.1 30.0 78.9 65.0 220.6
04/09 06:40 3.9 88 5.56 2.1 24 28 974.9 1.8 13.5 22.3 30.4 79.9 66.2 225.0
04/09 06:30 3.9 88 5.56 2.1 24 32 975 1.8 13.5 22.3 30.4 79.9 66.2 225.0
04/09 06:20 3.9 88 5.56 2.1 26 32 974.9 1.8 13.5 22.3 30.4 79.9 66.2 225.0
04/09 06:10 3.7 87 5.43 1.7 30 35 974.9 1.8 13.2 22.1 30.0 78.8 64.7 219.6
04/09 06:00 3.6 87 5.39 1.6 26 32 974.7 1.8 13.1 22.1 29.9 78.4 64.3 218.0
04/09 05:50 3.5 88 5.42 1.7 28 33 974.7 1.8 13.2 22.1 30.0 78.8 64.7 219.7
04/09 05:40 3.2 89 5.37 1.6 26 32 974.7 1.8 13.1 22.1 29.9 78.6 64.3 218.2
04/09 05:30 3.1 89 5.33 1.5 30 35 974.8 1.8 13.0 22.1 29.8 78.3 63.9 216.7
04/09 05:20 3.1 88 5.27 1.3 35 46 974.7 1.8 12.8 22.0 29.6 77.7 63.1 213.9
04/09 05:10 3.6 85 5.27 1.3 35 43 974.5 1.8 12.8 21.9 29.4 77.1 62.7 212.5
04/09 05:00 4 85 5.41 1.7 30 35 974.4 1.8 13.1 22.0 29.8 78.2 64.2 217.8
04/09 04:50 4 86 5.47 1.9 28 35 974.3 1.8 13.3 22.1 30.0 78.8 64.9 220.5
04/09 04:40 4 87 5.54 2 24 30 974.4 1.8 13.4 22.2 30.3 79.6 65.9 223.7
04/09 04:30 3.9 87 5.5 1.9 26 32 974.4 1.8 13.3 22.1 30.2 79.2 65.4 222.1
04/09 04:20 3.8 87 5.46 1.8 26 32 974.3 1.8 13.2 22.1 30.0 78.9 65.0 220.6
04/09 04:10 3.7 87 5.43 1.7 28 33 974.3 1.8 13.2 22.1 30.0 78.7 64.7 219.5
04/09 04:00 3.7 88 5.49 1.9 26 30 974.3 1.8 13.3 22.2 30.2 79.3 65.5 222.2
04/09 03:50 3.6 89 5.51 2 26 30 974.3 1.8 13.4 22.2 30.3 79.6 65.8 223.4
04/09 03:40 3.7 90 5.61 2.2 24 30 974.4 1.8 13.6 22.4 30.7 80.6 67.0 227.7
04/09 03:30 3.8 90 5.65 2.3 26 30 974.3 1.8 13.7 22.4 30.8 80.9 67.5 229.3
04/09 03:20 3.7 90 5.61 2.2 24 26 974.2 1.8 13.6 22.4 30.7 80.6 67.0 227.7
04/09 03:10 3.6 90 5.58 2.1 28 30 974.2 1.8 13.5 22.3 30.6 80.4 66.7 226.6
04/09 03:00 3.6 90 5.58 2.1 28 32 974.2 1.8 13.5 22.3 30.6 80.4 66.7 226.6
04/09 02:50 3.5 91 5.6 2.2 28 30 974.2 1.8 13.6 22.4 30.7 80.7 67.1 227.8
04/09 02:40 3.4 91 5.56 2.1 24 28 974.1 1.8 13.5 22.4 30.6 80.4 66.6 226.2
04/09 02:30 3.2 92 5.55 2 26 30 974.1 1.8 13.5 22.4 30.6 80.5 66.7 226.4
04/09 02:20 3.2 92 5.55 2 26 28 974.2 1.8 13.5 22.4 30.6 80.5 66.7 226.4
04/09 02:10 3.2 92 5.55 2 26 30 974.2 1.8 13.5 22.4 30.6 80.5 66.7 226.4
04/09 02:00 3 91 5.42 1.7 26 30 974.1 1.8 13.2 22.2 30.2 79.3 65.1 221.0
04/09 01:50 2.9 92 5.44 1.7 26 28 974.2 1.8 13.2 22.3 30.3 79.6 65.5 222.2
04/09 01:40 2.9 92 5.44 1.7 26 30 974.3 1.8 13.2 22.3 30.3 79.6 65.5 222.2
04/09 01:30 2.9 91 5.38 1.6 32 35 974.5 1.8 13.1 22.2 30.1 79.0 64.7 219.5
04/09 01:20 3.1 90 5.39 1.6 39 56 974.5 1.8 13.1 22.2 30.0 78.9 64.7 219.4
04/09 01:10 4.4 88 5.75 2.6 26 32 974.2 1.2 13.8 22.4 31.0 81.3 68.2 232.0
04/09 01:00 4.3 88 5.71 2.5 26 32 974.2 1.2 13.8 22.4 30.8 81.0 67.8 230.5
04/09 00:50 4.3 88 5.71 2.5 30 35 974.1 1.2 13.8 22.4 30.8 81.0 67.8 230.5
04/09 00:40 4.2 88 5.67 2.4 32 35 974.2 1.2 13.7 22.3 30.7 80.7 67.4 229.0
04/09 00:30 4.2 89 5.74 2.6 30 35 974.1 1.2 13.8 22.4 31.0 81.4 68.3 232.2
04/09 00:20 4.2 89 5.74 2.6 30 35 974.1 1.2 13.8 22.4 31.0 81.4 68.3 232.2
04/09 00:10 4.2 89 5.74 2.6 30 35 973.9 1.2 13.8 22.4 31.0 81.4 68.3 232.1
04/09 00:00 4.2 89 5.74 2.6 28 33 973.8 1.2 13.8 22.4 31.0 81.4 68.2 232.1
03/09 23:50 4.2 89 5.74 2.6 28 33 973.7 1.2 13.8 22.4 31.0 81.4 68.2 232.1
03/09 23:40 4.3 89 5.78 2.7 28 32 973.7 1.2 13.9 22.5 31.1 81.7 68.7 233.6
03/09 23:30 4.4 89 5.82 2.8 26 32 973.7 1.2 14.0 22.5 31.2 82.0 69.1 235.1
03/09 23:20 4.4 89 5.82 2.8 26 32 973.8 1.2 14.0 22.5 31.2 82.0 69.1 235.2
03/09 23:10 4.5 89 5.85 2.8 24 30 973.8 1.2 14.1 22.5 31.3 82.3 69.4 236.2
03/09 23:00 4.5 89 5.85 2.8 28 35 973.8 1.2 14.1 22.5 31.3 82.3 69.4 236.2
03/09 22:50 4.6 89 5.89 2.9 28 35 974 1.2 14.1 22.6 31.4 82.6 69.9 237.8
03/09 22:40 4.6 89 5.89 2.9 30 37 974 1.2 14.1 22.6 31.4 82.6 69.9 237.8
03/09 22:30 4.5 90 5.92 3 32 37 973.9 1.2 14.2 22.6 31.6 83.0 70.3 239.5
03/09 22:20 4.5 92 6.05 3.3 26 32 973.8 1.2 14.5 22.9 32.1 84.4 72.0 245.4
03/09 22:10 4.4 92 6.01 3.2 30 33 973.8 1.2 14.4 22.8 32.0 84.1 71.6 243.9
03/09 22:00 4.5 93 6.12 3.5 30 32 973.9 1.2 14.6 23.0 32.4 85.1 73.0 248.7
03/09 21:50 4.5 93 6.12 3.5 30 32 973.8 1.2 14.6 23.0 32.4 85.1 73.0 248.7
03/09 21:40 4.5 93 6.12 3.5 30 32 973.8 1.2 14.6 23.0 32.4 85.1 73.0 248.7
03/09 21:30 4.5 93 6.12 3.5 30 33 973.9 1.2 14.6 23.0 32.4 85.1 73.0 248.7
03/09 21:20 4.5 93 6.12 3.5 32 35 973.9 1.2 14.6 23.0 32.4 85.1 73.0 248.7
03/09 21:10 4.5 93 6.12 3.5 30 33 973.9 1.2 14.6 23.0 32.4 85.1 73.0 248.7
03/09 21:00 4.5 93 6.12 3.5 30 32 973.8 1.2 14.6 23.0 32.4 85.1 73.0 248.7
03/09 20:50 4.4 93 6.08 3.4 28 32 973.8 1.2 14.6 22.9 32.2 84.8 72.5 247.1
03/09 20:40 4.4 93 6.08 3.4 26 30 973.8 1.2 14.6 22.9 32.2 84.8 72.5 247.1
03/09 20:30 4.5 93 6.12 3.5 28 30 973.7 1.2 14.6 23.0 32.4 85.1 73.0 248.7
03/09 20:20 4.5 93 6.12 3.5 28 30 973.6 1.2 14.6 23.0 32.4 85.1 72.9 248.6
03/09 20:10 4.5 93 6.12 3.5 28 30 973.6 1.2 14.6 23.0 32.4 85.1 72.9 248.6
03/09 20:00 4.5 93 6.12 3.5 28 32 973.7 1.2 14.6 23.0 32.4 85.1 73.0 248.7
03/09 19:50 4.4 93 6.08 3.4 24 28 973.7 1.2 14.6 22.9 32.2 84.8 72.5 247.1
03/09 19:40 4.4 93 6.08 3.4 24 28 973.7 1.2 14.6 22.9 32.2 84.8 72.5 247.1
03/09 19:30 4.4 93 6.08 3.4 24 28 973.7 1.2 14.6 22.9 32.2 84.8 72.5 247.1
03/09 19:20 4.4 92 6.01 3.2 24 28 973.8 1.2 14.4 22.8 32.0 84.1 71.6 243.9
03/09 19:10 4.4 92 6.01 3.2 24 28 973.7 1.2 14.4 22.8 32.0 84.1 71.6 243.9
03/09 19:00 4.4 92 6.01 3.2 24 28 973.7 1.2 14.4 22.8 32.0 84.1 71.6 243.9
03/09 18:50 4.4 91 5.95 3.1 22 26 973.7 1.2 14.3 22.7 31.7 83.4 70.8 241.1
03/09 18:40 4.4 91 5.95 3.1 20 26 973.7 1.2 14.3 22.7 31.7 83.4 70.8 241.1
03/09 18:30 4.4 91 5.95 3.1 22 26 973.7 1.2 14.3 22.7 31.7 83.4 70.8 241.1
03/09 18:20 4.4 91 5.95 3.1 24 28 973.5 1.2 14.3 22.7 31.7 83.4 70.8 241.1
03/09 18:10 4.3 91 5.91 3 24 28 973.5 1.2 14.2 22.7 31.6 83.1 70.4 239.5
03/09 18:00 4.4 90 5.88 2.9 26 30 973.4 1.2 14.1 22.6 31.4 82.6 69.9 237.8
03/09 17:50 4.3 90 5.84 2.8 26 30 973.5 1.2 14.0 22.6 31.3 82.3 69.4 236.3
03/09 17:40 4.3 90 5.84 2.8 24 28 973.4 1.2 14.0 22.6 31.3 82.3 69.4 236.3
03/09 17:30 4.3 90 5.84 2.8 24 28 973.3 1.2 14.0 22.5 31.3 82.3 69.4 236.3
03/09 17:20 4.4 90 5.88 2.9 24 28 973.3 1.2 14.1 22.6 31.4 82.6 69.9 237.8
03/09 17:10 4.4 90 5.88 2.9 24 30 973.3 1.2 14.1 22.6 31.4 82.6 69.9 237.8
03/09 17:00 4.4 90 5.88 2.9 24 30 973.2 1.2 14.1 22.6 31.4 82.6 69.9 237.8
03/09 16:50 4.4 89 5.82 2.8 24 28 973.1 1.2 14.0 22.5 31.2 82.0 69.1 235.0
03/09 16:40 4.6 89 5.89 2.9 24 28 973.1 1.2 14.1 22.5 31.4 82.5 69.8 237.6
03/09 16:30 4.6 88 5.83 2.8 26 30 973.2 1.2 14.0 22.5 31.2 81.9 69.0 234.9
03/09 16:20 4.7 87 5.8 2.7 26 32 973.2 1.2 13.9 22.4 31.0 81.5 68.5 233.2
03/09 16:10 4.8 87 5.84 2.8 28 33 973.1 1.2 14.0 22.4 31.1 81.8 69.0 234.7
03/09 16:00 4.8 87 5.84 2.8 30 33 972.8 1.2 14.0 22.4 31.1 81.7 69.0 234.7
03/09 15:50 4.9 87 5.88 2.9 30 33 972.7 1.2 14.1 22.4 31.2 82.0 69.4 236.2
03/09 15:40 5.1 87 5.96 3.1 30 35 972.4 1.2 14.3 22.5 31.4 82.7 70.2 239.1
03/09 15:30 5.1 87 5.96 3.1 32 35 972.5 1.2 14.3 22.5 31.4 82.7 70.2 239.2
03/09 15:20 5.3 88 6.1 3.5 32 35 972.4 1.2 14.6 22.7 31.9 83.9 71.9 244.9
03/09 15:10 5.2 89 6.13 3.5 30 35 972.4 1.2 14.6 22.7 32.1 84.3 72.3 246.6
03/09 15:00 5 88 5.98 3.2 33 41 972.2 1.2 14.3 22.6 31.5 82.9 70.6 240.3

Last Refresh: 04-Sep-2026 07:18:13

Bureau of Meteorology